User: anonymous   Login
Location: Unspecified
(0.0000°N, 0.0000°E)
Time: 06:57:35
(UTC+00:00)
Language:

KKS-1 - Orbit

View from above orbital plane
View from above orbital plane
View from above satellite
View from above satellite

Ground track
Ground track

The orbit data is extracted from the following two-line orbital elements,

1 33499U 09002H   17202.60160726 +.00000135 +00000-0 +28070-4 0  9999
2 33499 098.3352 008.9967 0007888 264.0758 095.9551 14.75202647456010
Epoch (UTC): 21 July 2017 14:26:18
Eccentricity: 0.0007888
inclination: 98.3352°
perigee height: 639 km
apogee height: 650 km
right ascension of ascending node: 8.9967°
argument of perigee: 264.0758°
revolutions per day: 14.75202647
mean anomaly at epoch: 95.9551°
orbit number at epoch: 45601

The dashed part of the orbit path shows where the satellite is in the earth's shadow,  

DLR